Flag for Germany Past Weather in Geislingen an der Steige, Baden-Württemberg, Germany — Yesterday and Last 2 Weeks

50 °F

Scattered clouds.

Feels Like: 49 °F
Forecast: 36 / 56 °F
Wind: 3 mph from North

Location: Laupheim Airport

Current Time: Oct 27, 2016 at 1:19:15 PM

Latest Report: Oct 27, 2016 at 12:20 PM

Visibility: N/A

Pressure: 30.54 "Hg

Humidity: 67%

Dew Point: 39 °F

Location of Geislingen an der SteigeLocation

Past Weather in Geislingen an der Steige — Graph


Geislingen an der Steige Temperature Yesterday

Maximum temperature yesterday: 54 °F (at 4:20 PM)
Minimum temperature yesterday: 48 °F (at 7:20 AM)
Average temperature yesterday: 51 °F

High & Low Weather Summary for the Past Weeks

High63 °F (Oct 16, 3:20 PM)100% (Oct 13, 12:20 AM)30.54 "Hg (Oct 13, 12:20 AM)
Low30 °F (Oct 23, 5:20 AM)54% (Oct 12, 3:20 PM)29.68 "Hg (Oct 14, 5:20 PM)
Average47 °F88%30.06 "Hg
* Reported Oct 12 11:20 AM — Oct 27 11:20 AM, Geislingen an der Steige, Weather by CustomWeather, © 2016

Note: Actual official high and low records may vary slightly from our data, if they occured in-between our weather recording intervals... More about our weather records


Geislingen an der Steige Weather History for the Previous 24 Hours

Scroll right to see more
Time TempWeatherWind HumidityBarometerVisibility
11:20 AM
Thu, Oct 27
48 °FScattered clouds.2 mph71%30.54 "HgN/A
10:20 AM46 °FScattered clouds.2 mph82%30.54 "HgN/A
9:20 AM46 °FPartly sunny.1 mph87%30.51 "Hg4 mi
8:20 AM45 °FFog.1 mph93%30.48 "Hg3 mi
7:45 AM45 °FFog.1 mph93%30.48 "Hg2 mi
7:20 AM46 °FFog.1 mph93%30.45 "Hg3 mi
6:20 AM46 °FFog.1 mph93%30.45 "Hg3 mi
5:20 AM46 °FPassing clouds.2 mph87%30.45 "Hg4 mi
4:20 AM46 °FPassing clouds.1 mph93%30.45 "Hg4 mi
3:20 AM46 °FPassing clouds.2 mph93%30.45 "Hg4 mi
2:20 AM48 °FPassing clouds.2 mph94%30.45 "Hg4 mi
1:20 AM48 °FPassing clouds.1 mph94%30.42 "Hg4 mi
12:20 AM48 °FPassing clouds.1 mph94%30.42 "Hg4 mi
11:20 PM
Wed, Oct 26
50 °FPassing clouds.1 mph88%30.42 "Hg6 mi
10:20 PM50 °FPassing clouds.1 mph88%30.39 "Hg6 mi
9:20 PM50 °FPassing clouds.1 mph88%30.39 "Hg6 mi
8:20 PM50 °FPassing clouds.5 mph88%30.36 "Hg6 mi
7:20 PM52 °FPassing clouds.3 mph82%30.36 "HgN/A
6:20 PM52 °FPassing clouds.3 mph82%30.36 "Hg5 mi
5:20 PM52 °FBroken clouds.5 mph82%30.33 "Hg6 mi
4:20 PM54 °FBroken clouds.6 mph77%30.33 "Hg6 mi
3:20 PM52 °FPartly sunny.5 mph82%30.33 "HgN/A
2:20 PM52 °FPartly sunny.5 mph82%30.33 "HgN/A
1:20 PM52 °FBroken clouds.7 mph82%30.33 "Hg5 mi
Weather by CustomWeather, © 2016

See weather overviewHow to use our weather pages